Location: Trout Lake
(45.9980°N, 121.5270°W)
Time: 20:41:35
(UTC-08:00)

Meteor 1-31 Rocket - Pass Details

Date: 06 December 2023
Orbit: 498 x 523 km, 97.7° (Epoch: 22 February)

Event Time Altitude Azimuth Distance (km) Brightness Sun altitude
Rises 17:55:54 0° 180° (S) 2,576 6.5 -15.8°
Reaches altitude 10° 17:58:02 10° 187° (S) 1,700 5.6 -16.1°
Maximum altitude 18:01:32 44° 261° (W) 702 3.8 -16.7°
Drops below altitude 10° 18:05:07 10° 335° (NNW) 1,726 5.5 -17.3°
Sets 18:07:17 0° 342° (NNW) 2,621 6.3 -17.7°
